Location: ???????
(38.0418°N, 23.4069°E)
Time: 21:44:28
(UTC+00:00)

Daily predictions for brighter satellites

Satellite Brightness Start Highest point End
(mag) Time Altitude Azimuth Time Altitude Azimuth Time Altitude Azimuth
Hubble Space Telescope 3.7 15:37:40 10° SW 15:38:50 11° SSW 15:40:00 10° S
Cosmos 2251 Rocket 4.4 15:37:46 10° N 15:42:22 28° ENE 15:46:58 10° ESE
ISS -3.5 15:43:47 10° NW 15:47:02 47° NE 15:50:17 10° ESE
Lacrosse 5 2.1 15:42:43 10° SSW 15:47:36 53° SE 15:52:29 10° NE
Cosmos-2242 3.0 15:47:16 10° S 15:51:33 68° E 15:55:52 10° NNE
Meteor 2-2 Rocket 4.5 15:49:23 10° SSE 15:54:53 51° E 16:00:32 10° NNE
Cosmos 2151 4.3 15:51:06 10° NNW 15:55:10 44° W 15:59:13 10° SSW
USA 234 3.3 15:50:52 10° NE 15:57:26 89° SE 16:03:59 10° SW
COSMO-SKYMED 1 3.4 15:53:42 10° NE 15:57:34 31° E 16:01:25 10° SSE
Lacrosse 4 Rocket 1.9 15:55:02 10° N 15:59:05 38° ENE 16:03:01 10° SE
Cosmos 2026 Rocket 4.4 15:54:32 10° SSE 16:00:19 42° E 16:06:13 10° NNE
Cosmos 1818 3.6 15:56:49 10° SSW 16:02:14 86° ESE 16:07:43 10° NNE
Cosmos 2221 3.8 15:59:09 10° SE 16:02:15 20° E 16:04:18 15° NE
Meteor 1-25 Rocket 4.4 15:57:13 10° N 16:02:40 48° ENE 16:08:01 10° SSE
APEX 3.1 15:59:37 10° SW 16:02:41 55° WNW 16:05:29 10° NNE
Cosmos 1023 Rocket 4.4 15:59:00 10° N 16:04:04 59° ENE 16:09:04 10° SSE
CZ-2C R/B 2.9 16:03:16 10° SW 16:04:40 14° SSW 16:06:02 10° SSE
Cosmos 1812 2.7 16:03:19 10° S 16:06:59 78° W 16:10:40 10° N
AQUARIUS 4.1 16:05:30 10° SSE 16:09:57 89° ESE 16:14:26 10° NNW
CZ-2C R/B 4.4 16:09:29 10° SSW 16:12:44 34° W 16:16:02 10° NNW
Cosmos 1844 Rocket 2.8 16:09:51 10° S 16:15:15 56° ESE 16:20:21 12° NNE
Cosmos 2263 Rocket 4.0 16:10:41 10° WSW 16:15:25 28° WNW 16:20:12 10° N
Cosmos 1092 Rocket 4.0 16:11:40 10° S 16:17:40 61° E 16:23:42 10° NNE
Nadezhda 4 Rocket 4.3 16:11:42 10° SSW 16:17:49 69° W 16:23:56 10° N
Cosmos 1420 Rocket 4.1 16:18:54 10° S 16:23:58 53° ESE 16:28:11 15° NNE
ADEOS 4.0 16:22:32 10° SE 16:27:20 39° ENE 16:32:09 10° N
[s.n.58448] 2.2 16:25:06 10° WNW 16:27:40 83° NNE 16:28:02 60° E
USA 307 2.4 16:24:27 10° NW 16:28:17 69° NE 16:30:26 23° ESE
Cosmos 1933 3.2 16:24:22 10° S 16:28:20 73° E 16:32:19 10° NNE
BREEZE-M R/B 4.5 16:23:04 10° SW 16:28:44 82° SE 16:36:05 19° NE
Cosmos 1766 Rocket 4.3 16:25:33 10° NNE 16:29:22 29° ENE 16:33:08 10° SE
[s.n.58449] 2.1 16:27:45 10° WNW 16:30:17 87° NE 16:30:27 75° ESE
Meteor 1-20 Rocket 4.4 16:25:13 10° NNW 16:30:49 78° W 16:36:30 10° S
[s.n.58459] 2.2 16:28:50 10° WNW 16:31:27 89° NE 16:31:40 71° ESE
Cosmos 1140 Rocket 3.5 16:26:30 10° NNW 16:31:41 80° WSW 16:36:47 10° SSE
Cosmos 1624 Rocket 4.0 16:26:38 10° S 16:31:43 56° ESE 16:35:20 19° NNE
[s.n.58458] 2.2 16:29:33 10° WNW 16:32:09 90° W 16:32:21 73° ESE
[s.n.58456] 2.2 16:30:22 10° WNW 16:32:59 89° S 16:33:08 77° ESE
[s.n.58447] 2.1 16:30:42 10° WNW 16:33:16 88° SSW 16:33:23 81° SE
[s.n.58457] 2.2 16:31:08 10° WNW 16:33:45 87° SSW 16:33:52 79° SE
[s.n.58455] 2.2 16:31:54 10° WNW 16:34:31 86° SSW 16:34:37 81° SE
[s.n.58454] 2.2 16:32:40 10° WNW 16:35:17 85° SSW 16:35:21 82° SSE
[s.n.58453] 2.2 16:33:27 10° WNW 16:36:04 84° SSW 16:36:06 83° S
[s.n.58452] 2.3 16:34:10 10° WNW 16:36:47 82° SSW 16:36:47 82° SSW
[s.n.58451] 2.3 16:34:57 10° WNW 16:37:32 81° SW 16:37:32 81° SW
CBERS 1 LM4 rocket 4.2 16:32:48 10° SSE 16:37:38 77° ENE 16:42:22 10° N
[s.n.58450] 2.4 16:35:43 10° WNW 16:38:16 79° SW 16:38:16 79° SW
[s.n.58446] 2.5 16:38:00 10° WNW 16:40:29 72° WSW 16:40:29 72° WSW
[s.n.58445] 2.6 16:38:48 10° WNW 16:41:15 69° WSW 16:41:15 69° WSW
Cosmos 1603 3.6 16:36:13 10° NNW 16:41:56 83° ENE 16:47:33 10° SSE
[s.n.58444] 2.7 16:39:35 10° WNW 16:41:59 67° WSW 16:41:59 67° WSW
[s.n.58443] 2.7 16:40:20 10° WNW 16:42:42 65° WSW 16:42:42 65° WSW
[s.n.58442] 2.8 16:41:10 10° WNW 16:43:30 62° WSW 16:43:30 62° WSW
[s.n.58441] 2.9 16:41:58 10° WNW 16:44:16 60° WSW 16:44:16 60° WSW
[s.n.58440] 2.9 16:42:41 10° WNW 16:44:58 58° WSW 16:44:58 58° WSW
Cosmos 192 4.5 16:40:42 10° SSW 16:45:34 74° WNW 16:49:36 15° NNE
SKYMED 2 3.8 16:41:23 10° N 16:45:44 72° WNW 16:50:01 10° SSW
[s.n.58439] 3.0 16:43:29 10° WNW 16:45:45 56° WSW 16:45:45 56° WSW
[s.n.58437] 3.1 16:44:15 10° WNW 16:46:28 54° W 16:46:28 54° W
[s.n.58438] 3.2 16:45:01 10° WNW 16:47:13 52° W 16:47:13 52° W
SL-08 R/B 3.1 16:46:50 16° NNE 16:50:30 86° E 16:55:10 10° SSW
USA 306 4.0 16:49:12 10° WNW 16:50:22 20° WSW 16:50:22 20° WSW
CZ-4B R/B 4.1 16:50:14 10° S 16:55:15 56° WSW 17:00:09 10° NNW
ATLAS CENTAUR R/B 3.4 16:50:03 10° NW 16:55:24 83° SW 17:06:04 10° SE
EO 1 Delta rocket 4.5 16:49:13 10° SSE 16:56:18 65° ENE 17:01:52 10° N
Cosmos 1782 4.2 16:55:17 10° SSW 16:58:55 36° WNW 17:02:33 10° N
SL-8 R/B 3.6 16:54:43 10° WNW 16:59:31 84° SW 17:00:59 45° SE
USA 305 2.6 16:56:12 10° NW 17:00:03 75° SW 17:00:25 67° S
NOAA 6 4.5 16:58:00 10° S 17:03:04 62° WSW 17:08:10 10° NNW
Cosmos 1515 3.8 16:59:56 10° S 17:02:50 57° S 17:02:50 57° S
Cosmos 1943 4.5 17:00:25 10° NW 17:05:40 41° WSW 17:10:54 10° S
ATLAS 2AS CENTAUR R/B 2.8 17:02:06 10° NNW 17:08:39 47° NE 17:09:08 46° ENE
Radarsat Rocket 4.3 17:03:43 10° S 17:09:28 64° WSW 17:15:24 10° NNW
CZ-4B DEB 4.2 17:05:53 10° SSE 17:11:16 58° ENE 17:16:43 10° N
ISS -1.0 17:21:20 10° W 17:23:30 16° SW 17:24:34 14° SSW
SME Rocket 3.9 17:18:43 10° SSE 17:23:48 85° ENE 17:31:41 10° NNW
SL-4 R/B 4.1 17:22:20 10° SSW 17:23:04 16° SSW 17:23:04 16° SSW
COSMOS 2455 2.7 17:20:18 10° SSW 17:26:19 86° ESE 17:27:02 70° NE
Lacrosse 5 3.4 17:26:29 10° W 17:30:48 28° NW 17:31:43 26° NNW
Cosmos 1954 Rocket 4.0 17:26:25 10° NNW 17:31:28 78° WNW 17:31:28 78° WNW
Lacrosse 4 Rocket 4.3 17:34:23 10° WNW 17:37:07 17° WSW 17:39:50 10° SW
SEDSat Delta rocket 4.4 17:32:34 10° WSW 17:36:53 35° SSW 17:36:53 35° SSW
Cosmos 2221 4.4 17:35:49 10° SW 17:39:26 27° WNW 17:41:02 21° NW
Cosmos 1553 Rocket 4.3 17:36:35 10° NNW 17:42:48 66° W 17:48:54 10° S
H-2A R/B 4.3 17:57:49 10° WSW 18:01:47 24° S 18:02:44 23° S
ATLAS 2AS CENTAUR R/B 4.5 18:53:28 10° NW 18:56:38 24° WNW 18:56:38 24° WNW
